Location: San Antonio
(29.4240°N, 98.4930°W)
Time: 19:04:45
(UTC-05:00)

ZACube-1 - Pass Details

Date: 06 August 2024
Orbit: 561 x 628 km, 97.7° (Epoch: 15 September)

Event Time Altitude Azimuth Distance (km) Brightness Sun altitude
Rises 04:24:14 0° 10° (N) 2,903 ? -29.3°
Reaches altitude 10° 04:26:25 10° 9° (N) 2,001 ? -29.0°
Enters shadow 04:29:16 41° 4° (N) 918 ? -28.5°
